date,time,humid
2017-05-01,00:00,31.67
2017-05-01,01:00,35.17
2017-05-01,02:00,38
2017-05-01,03:00,39.83
2017-05-01,04:00,41.83
2017-05-01,05:00,43.17
2017-05-01,06:00,46.33
2017-05-01,07:00,48
2017-05-01,08:00,31.67
2017-05-01,09:00,-999
2017-05-01,10:00,-999
2017-05-01,11:00,-999
2017-05-01,12:00,-999
2017-05-01,13:00,-999
2017-05-01,14:00,-999
2017-05-01,15:00,-999
2017-05-01,16:00,-999
2017-05-01,17:00,-999
2017-05-01,18:00,-999
2017-05-01,19:00,-999
2017-05-01,20:00,-999
2017-05-01,21:00,-999
2017-05-01,22:00,-999
2017-05-01,23:00,21.17
2017-05-02,00:00,22.5
2017-05-02,01:00,27.67
2017-05-02,02:00,30.33
2017-05-02,03:00,33
2017-05-02,04:00,35.17
2017-05-02,05:00,37.83
2017-05-02,06:00,39.67
2017-05-02,07:00,40.5
2017-05-02,08:00,24.33
2017-05-02,09:00,-999
2017-05-02,10:00,-999
2017-05-02,11:00,-999
2017-05-02,12:00,-999
2017-05-02,13:00,-999
2017-05-02,14:00,-999
2017-05-02,15:00,-999
2017-05-02,16:00,-999
2017-05-02,17:00,-999
2017-05-02,18:00,-999
2017-05-02,19:00,-999
2017-05-02,20:00,-999
2017-05-02,21:00,21
2017-05-02,22:00,23.67
2017-05-02,23:00,27.83
2017-05-03,00:00,30.83
2017-05-03,01:00,33.67
2017-05-03,02:00,35.33
2017-05-03,03:00,38.5
2017-05-03,04:00,39.67
2017-05-03,05:00,41.67
2017-05-03,06:00,41.5
2017-05-03,07:00,45.17
2017-05-03,08:00,34.67
2017-05-03,09:00,21.67
2017-05-03,10:00,-999
2017-05-03,11:00,-999
2017-05-03,12:00,-999
2017-05-03,13:00,-999
2017-05-03,14:00,-999
2017-05-03,15:00,-999
2017-05-03,16:00,-999
2017-05-03,17:00,-999
2017-05-03,18:00,-999
2017-05-03,19:00,-999
2017-05-03,20:00,-999
2017-05-03,21:00,-999
2017-05-03,22:00,20
2017-05-03,23:00,24.67
2017-05-04,00:00,26.5
2017-05-04,01:00,33.17
2017-05-04,02:00,35.17
2017-05-04,03:00,37.5
2017-05-04,04:00,38.67
2017-05-04,05:00,40
2017-05-04,06:00,41.5
2017-05-04,07:00,44.67
2017-05-04,08:00,31.5
2017-05-04,09:00,-999
2017-05-04,10:00,-999
2017-05-04,11:00,-999
2017-05-04,12:00,-999
2017-05-04,13:00,-999
2017-05-04,14:00,-999
2017-05-04,15:00,-999
2017-05-04,16:00,-999
2017-05-04,17:00,-999
2017-05-04,18:00,-999
2017-05-04,19:00,-999
2017-05-04,20:00,-999
2017-05-04,21:00,-999
2017-05-04,22:00,-999
2017-05-04,23:00,22.33
2017-05-05,00:00,28
2017-05-05,01:00,29.17
2017-05-05,02:00,32.17
2017-05-05,03:00,34.67
2017-05-05,04:00,34.33
2017-05-05,05:00,35.83
2017-05-05,06:00,38.83
2017-05-05,07:00,42
2017-05-05,08:00,35.33
2017-05-05,09:00,25.5
2017-05-05,10:00,-999
2017-05-05,11:00,-999
2017-05-05,12:00,-999
2017-05-05,13:00,-999
2017-05-05,14:00,-999
2017-05-05,15:00,24.33
2017-05-05,16:00,35.33
2017-05-05,17:00,34.5
2017-05-05,18:00,32.33
2017-05-05,19:00,36.33
2017-05-05,20:00,41.5
2017-05-05,21:00,45
2017-05-05,22:00,47.17
2017-05-05,23:00,48
2017-05-06,00:00,49.5
2017-05-06,01:00,50.33
2017-05-06,02:00,51
2017-05-06,03:00,53.67
2017-05-06,04:00,54.17
2017-05-06,05:00,54.33
2017-05-06,06:00,54.83
2017-05-06,07:00,61.5
2017-05-06,08:00,39.33
2017-05-06,09:00,25.5
2017-05-06,10:00,-999
2017-05-06,11:00,-999
2017-05-06,12:00,-999
2017-05-06,13:00,-999
2017-05-06,14:00,-999
2017-05-06,15:00,-999
2017-05-06,16:00,-999
2017-05-06,17:00,-999
2017-05-06,18:00,-999
2017-05-06,19:00,-999
2017-05-06,20:00,-999
2017-05-06,21:00,-999
2017-05-06,22:00,20.5
2017-05-06,23:00,27.83
2017-05-07,00:00,34
2017-05-07,01:00,37.83
2017-05-07,02:00,40.17
2017-05-07,03:00,42
2017-05-07,04:00,44.67
2017-05-07,05:00,45.67
2017-05-07,06:00,47
2017-05-07,07:00,48.33
2017-05-07,08:00,37.17
2017-05-07,09:00,21.5
2017-05-07,10:00,-999
2017-05-07,11:00,-999
2017-05-07,12:00,-999
2017-05-07,13:00,-999
2017-05-07,14:00,-999
2017-05-07,15:00,-999
2017-05-07,16:00,-999
2017-05-07,17:00,-999
2017-05-07,18:00,-999
2017-05-07,19:00,-999
2017-05-07,20:00,-999
2017-05-07,21:00,-999
2017-05-07,22:00,-999
2017-05-07,23:00,-999
2017-05-08,00:00,21.17
2017-05-08,01:00,25
2017-05-08,02:00,28
2017-05-08,03:00,31
2017-05-08,04:00,33.5
2017-05-08,05:00,37
2017-05-08,06:00,37.67
2017-05-08,07:00,42
2017-05-08,08:00,41.17
2017-05-08,09:00,25.33
2017-05-08,10:00,21.33
2017-05-08,11:00,-999
2017-05-08,12:00,-999
2017-05-08,13:00,-999
2017-05-08,14:00,-999
2017-05-08,15:00,-999
2017-05-08,16:00,-999
2017-05-08,17:00,-999
2017-05-08,18:00,-999
2017-05-08,19:00,-999
2017-05-08,20:00,-999
2017-05-08,21:00,-999
2017-05-08,22:00,20
2017-05-08,23:00,25.33
2017-05-09,00:00,29.67
2017-05-09,01:00,34.67
2017-05-09,02:00,36.33
2017-05-09,03:00,40
2017-05-09,04:00,41.83
2017-05-09,05:00,43.5
2017-05-09,06:00,46
2017-05-09,07:00,49.67
2017-05-09,08:00,30.17
2017-05-09,09:00,-999
2017-05-09,10:00,-999
2017-05-09,11:00,-999
2017-05-09,12:00,-999
2017-05-09,13:00,-999
2017-05-09,14:00,-999
2017-05-09,15:00,-999
2017-05-09,16:00,-999
2017-05-09,17:00,-999
2017-05-09,18:00,-999
2017-05-09,19:00,-999
2017-05-09,20:00,-999
2017-05-09,21:00,-999
2017-05-09,22:00,26
2017-05-09,23:00,29.67
2017-05-10,00:00,32.5
2017-05-10,01:00,36.5
2017-05-10,02:00,38
2017-05-10,03:00,41.17
2017-05-10,04:00,42.33
2017-05-10,05:00,43.33
2017-05-10,06:00,45.67
2017-05-10,07:00,48.17
2017-05-10,08:00,26
2017-05-10,09:00,-999
2017-05-10,10:00,-999
2017-05-10,11:00,-999
2017-05-10,12:00,-999
2017-05-10,13:00,-999
2017-05-10,14:00,-999
2017-05-10,15:00,-999
2017-05-10,16:00,-999
2017-05-10,17:00,-999
2017-05-10,18:00,-999
2017-05-10,19:00,-999
2017-05-10,20:00,22
2017-05-10,21:00,34.83
2017-05-10,22:00,38.83
2017-05-10,23:00,43
2017-05-11,00:00,46.83
2017-05-11,01:00,48.5
2017-05-11,02:00,52.33
2017-05-11,03:00,53
2017-05-11,04:00,54
2017-05-11,05:00,54.5
2017-05-11,06:00,53.83
2017-05-11,07:00,56.83
2017-05-11,08:00,61.33
2017-05-11,09:00,61.5
2017-05-11,10:00,63.5
2017-05-11,11:00,60.17
2017-05-11,12:00,66.17
2017-05-11,13:00,48
2017-05-11,14:00,27.5
2017-05-11,15:00,21.67
2017-05-11,16:00,21
2017-05-11,17:00,-999
2017-05-11,18:00,22.17
2017-05-11,19:00,34.33
2017-05-11,20:00,47
2017-05-11,21:00,53.83
2017-05-11,22:00,58.83
2017-05-11,23:00,66.17
2017-05-12,00:00,69.5
2017-05-12,01:00,70.5
2017-05-12,02:00,72.83
2017-05-12,03:00,74.5
2017-05-12,04:00,75.67
2017-05-12,05:00,75.83
2017-05-12,06:00,75.83
2017-05-12,07:00,82.33
2017-05-12,08:00,85
2017-05-12,09:00,82.67
2017-05-12,10:00,75
2017-05-12,11:00,45.5
2017-05-12,12:00,30.33
2017-05-12,13:00,25.33
2017-05-12,14:00,-999
2017-05-12,15:00,-999
2017-05-12,16:00,-999
2017-05-12,17:00,-999
2017-05-12,18:00,-999
2017-05-12,19:00,46.83
2017-05-12,20:00,58.5
2017-05-12,21:00,66.67
2017-05-12,22:00,71.17
2017-05-12,23:00,73.83
2017-05-13,00:00,76.17
2017-05-13,01:00,76.67
2017-05-13,02:00,77.5
2017-05-13,03:00,77.83
2017-05-13,04:00,79.17
2017-05-13,05:00,79
2017-05-13,06:00,80.5
2017-05-13,07:00,86.33
2017-05-13,08:00,88.5
2017-05-13,09:00,57.67
2017-05-13,10:00,34.5
2017-05-13,11:00,24.17
2017-05-13,12:00,-999
2017-05-13,13:00,-999
2017-05-13,14:00,-999
2017-05-13,15:00,-999
2017-05-13,16:00,-999
2017-05-13,17:00,-999
2017-05-13,18:00,-999
2017-05-13,19:00,24.33
2017-05-13,20:00,34.33
2017-05-13,21:00,42.5
2017-05-13,22:00,48.33
2017-05-13,23:00,54
2017-05-14,00:00,61.5
2017-05-14,01:00,64.5
2017-05-14,02:00,68
2017-05-14,03:00,69.5
2017-05-14,04:00,72.33
2017-05-14,05:00,74.33
2017-05-14,06:00,76.17
2017-05-14,07:00,83
2017-05-14,08:00,61.17
2017-05-14,09:00,27.5
2017-05-14,10:00,22
2017-05-14,11:00,-999
2017-05-14,12:00,-999
2017-05-14,13:00,-999
2017-05-14,14:00,-999
2017-05-14,15:00,-999
2017-05-14,16:00,-999
2017-05-14,17:00,26.5
2017-05-14,18:00,53
2017-05-14,19:00,60
2017-05-14,20:00,63
2017-05-14,21:00,65.33
2017-05-14,22:00,68.67
2017-05-14,23:00,69.33
2017-05-15,00:00,72.5
2017-05-15,01:00,74.83
2017-05-15,02:00,75
2017-05-15,03:00,75.67
2017-05-15,04:00,76
2017-05-15,05:00,76.33
2017-05-15,06:00,77.67
2017-05-15,07:00,81
2017-05-15,08:00,72.33
2017-05-15,09:00,41.83
2017-05-15,10:00,28.33
2017-05-15,11:00,22.33
2017-05-15,12:00,-999
2017-05-15,13:00,-999
2017-05-15,14:00,-999
2017-05-15,15:00,-999
2017-05-15,16:00,20
2017-05-15,17:00,23.33
2017-05-15,18:00,-999
2017-05-15,19:00,22.5
2017-05-15,20:00,31.83
2017-05-15,21:00,42.83
2017-05-15,22:00,55
2017-05-15,23:00,63
2017-05-16,00:00,65.17
2017-05-16,01:00,69
2017-05-16,02:00,71.67
2017-05-16,03:00,72.5
2017-05-16,04:00,72.67
2017-05-16,05:00,75
2017-05-16,06:00,76.17
2017-05-16,07:00,81.17
2017-05-16,08:00,51.83
2017-05-16,09:00,39.67
2017-05-16,10:00,24.17
2017-05-16,11:00,-999
2017-05-16,12:00,-999
2017-05-16,13:00,-999
2017-05-16,14:00,-999
2017-05-16,15:00,-999
2017-05-16,16:00,-999
2017-05-16,17:00,-999
2017-05-16,18:00,-999
2017-05-16,19:00,-999
2017-05-16,20:00,-999
2017-05-16,21:00,-999
2017-05-16,22:00,21.33
2017-05-16,23:00,28.83
2017-05-17,00:00,32
2017-05-17,01:00,32.67
2017-05-17,02:00,37.17
2017-05-17,03:00,32.67
2017-05-17,04:00,34.17
2017-05-17,05:00,36.5
2017-05-17,06:00,43.17
2017-05-17,07:00,35.33
2017-05-17,08:00,27.33
2017-05-17,09:00,22.5
2017-05-17,10:00,-999
2017-05-17,11:00,-999
2017-05-17,12:00,28.33
2017-05-17,13:00,21.67
2017-05-17,14:00,39.33
2017-05-17,15:00,48.67
2017-05-17,16:00,54
2017-05-17,17:00,60.33
2017-05-17,18:00,52.67
2017-05-17,19:00,57.67
2017-05-17,20:00,61.67
2017-05-17,21:00,65.83
2017-05-17,22:00,67.33
2017-05-17,23:00,69.17
2017-05-18,00:00,70.67
2017-05-18,01:00,70.83
2017-05-18,02:00,71
2017-05-18,03:00,71.67
2017-05-18,04:00,72.17
2017-05-18,05:00,72.33
2017-05-18,06:00,72.67
2017-05-18,07:00,74.83
2017-05-18,08:00,80.5
2017-05-18,09:00,61
2017-05-18,10:00,34.5
2017-05-18,11:00,25.17
2017-05-18,12:00,-999
2017-05-18,13:00,-999
2017-05-18,14:00,-999
2017-05-18,15:00,48.67
2017-05-18,16:00,58.67
2017-05-18,17:00,69.67
2017-05-18,18:00,72.33
2017-05-18,19:00,71.5
2017-05-18,20:00,72.67
2017-05-18,21:00,75.17
2017-05-18,22:00,75.17
2017-05-18,23:00,76.83
2017-05-19,00:00,77.67
2017-05-19,01:00,78
2017-05-19,02:00,78.83
2017-05-19,03:00,78.83
2017-05-19,04:00,81.17
2017-05-19,05:00,82.33
2017-05-19,06:00,83.17
2017-05-19,07:00,88.5
2017-05-19,08:00,96.17
2017-05-19,09:00,48
2017-05-19,10:00,41.83
2017-05-19,11:00,30
2017-05-19,12:00,27.5
2017-05-19,13:00,72
2017-05-19,14:00,77.5
2017-05-19,15:00,63.67
2017-05-19,16:00,73.67
2017-05-19,17:00,76.17
2017-05-19,18:00,79.17
2017-05-19,19:00,80.67
2017-05-19,20:00,83.17
2017-05-19,21:00,84.33
2017-05-19,22:00,85.67
2017-05-19,23:00,86
2017-05-20,00:00,87.67
2017-05-20,01:00,88
2017-05-20,02:00,89.5
2017-05-20,03:00,90
2017-05-20,04:00,91.33
2017-05-20,05:00,92.83
2017-05-20,06:00,94.5
2017-05-20,07:00,-999
2017-05-20,08:00,99.67
2017-05-20,09:00,51.67
2017-05-20,10:00,45.33
2017-05-20,11:00,29.83
2017-05-20,12:00,20.33
2017-05-20,13:00,20.33
2017-05-20,14:00,-999
2017-05-20,15:00,-999
2017-05-20,16:00,-999
2017-05-20,17:00,-999
2017-05-20,18:00,-999
2017-05-20,19:00,-999
2017-05-20,20:00,20.67
2017-05-20,21:00,27.83
2017-05-20,22:00,42
2017-05-20,23:00,48.83
2017-05-21,00:00,54.83
2017-05-21,01:00,58.33
2017-05-21,02:00,65.17
2017-05-21,03:00,68.17
2017-05-21,04:00,71.67
2017-05-21,05:00,74.33
2017-05-21,06:00,75.67
2017-05-21,07:00,83
2017-05-21,08:00,44
2017-05-21,09:00,27.17
2017-05-21,10:00,21.67
2017-05-21,11:00,-999
2017-05-21,12:00,-999
2017-05-21,13:00,-999
2017-05-21,14:00,-999
2017-05-21,15:00,-999
2017-05-21,16:00,-999
2017-05-21,17:00,-999
2017-05-21,18:00,-999
2017-05-21,19:00,-999
2017-05-21,20:00,-999
2017-05-21,21:00,22.17
2017-05-21,22:00,28.17
2017-05-21,23:00,36.5
2017-05-22,00:00,42.33
2017-05-22,01:00,48.67
2017-05-22,02:00,46.67
2017-05-22,03:00,47.83
2017-05-22,04:00,52.67
2017-05-22,05:00,55.33
2017-05-22,06:00,61.5
2017-05-22,07:00,65.33
2017-05-22,08:00,42
2017-05-22,09:00,25.17
2017-05-22,10:00,-999
2017-05-22,11:00,-999
2017-05-22,12:00,-999
2017-05-22,13:00,-999
2017-05-22,14:00,-999
2017-05-22,15:00,-999
2017-05-22,16:00,-999
2017-05-22,17:00,-999
2017-05-22,18:00,-999
2017-05-22,19:00,-999
2017-05-22,20:00,-999
2017-05-22,21:00,-999
2017-05-22,22:00,-999
2017-05-22,23:00,-999
2017-05-23,00:00,-999
2017-05-23,01:00,-999
2017-05-23,02:00,-999
2017-05-23,03:00,-999
2017-05-23,04:00,-999
2017-05-23,05:00,22.5
2017-05-23,06:00,31.17
2017-05-23,07:00,31.5
2017-05-23,08:00,-999
2017-05-23,09:00,-999
2017-05-23,10:00,-999
2017-05-23,11:00,-999
2017-05-23,12:00,-999
2017-05-23,13:00,-999
2017-05-23,14:00,-999
2017-05-23,15:00,-999
2017-05-23,16:00,-999
2017-05-23,17:00,-999
2017-05-23,18:00,-999
2017-05-23,19:00,-999
2017-05-23,20:00,-999
2017-05-23,21:00,-999
2017-05-23,22:00,-999
2017-05-23,23:00,20.5
2017-05-24,00:00,25
2017-05-24,01:00,31.17
2017-05-24,02:00,35.5
2017-05-24,03:00,36.67
2017-05-24,04:00,41
2017-05-24,05:00,40.5
2017-05-24,06:00,44.5
2017-05-24,07:00,47.5
2017-05-24,08:00,26.33
2017-05-24,09:00,-999
2017-05-24,10:00,-999
2017-05-24,11:00,-999
2017-05-24,12:00,-999
2017-05-24,13:00,-999
2017-05-24,14:00,-999
2017-05-24,15:00,-999
2017-05-24,16:00,-999
2017-05-24,17:00,-999
2017-05-24,18:00,-999
2017-05-24,19:00,-999
2017-05-24,20:00,-999
2017-05-24,21:00,-999
2017-05-24,22:00,-999
2017-05-24,23:00,-999
2017-05-25,00:00,-999
2017-05-25,01:00,24.5
2017-05-25,02:00,28.83
2017-05-25,03:00,32.5
2017-05-25,04:00,36
2017-05-25,05:00,-999
2017-05-25,06:00,-999
2017-05-25,07:00,-999
2017-05-25,08:00,-999
2017-05-25,09:00,-999
2017-05-25,10:00,-999
2017-05-25,11:00,-999
2017-05-25,12:00,-999
2017-05-25,13:00,-999
2017-05-25,14:00,-999
2017-05-25,15:00,-999
2017-05-25,16:00,-999
2017-05-25,17:00,-999
2017-05-25,18:00,-999
2017-05-25,19:00,-999
2017-05-25,20:00,-999
2017-05-25,21:00,-999
2017-05-25,22:00,-999
2017-05-25,23:00,-999
2017-05-26,00:00,-999
2017-05-26,01:00,45.17
2017-05-26,02:00,48.5
2017-05-26,03:00,50.83
2017-05-26,04:00,53.67
2017-05-26,05:00,57.17
2017-05-26,06:00,58.83
2017-05-26,07:00,63.33
2017-05-26,08:00,28.33
2017-05-26,09:00,-999
2017-05-26,10:00,-999
2017-05-26,11:00,-999
2017-05-26,12:00,-999
2017-05-26,13:00,-999
2017-05-26,14:00,-999
2017-05-26,15:00,-999
2017-05-26,16:00,-999
2017-05-26,17:00,-999
2017-05-26,18:00,-999
2017-05-26,19:00,-999
2017-05-26,20:00,-999
2017-05-26,21:00,-999
2017-05-26,22:00,-999
2017-05-26,23:00,-999
2017-05-27,00:00,-999
2017-05-27,01:00,-999
2017-05-27,02:00,-999
2017-05-27,03:00,-999
2017-05-27,04:00,-999
2017-05-27,05:00,-999
2017-05-27,06:00,20.5
2017-05-27,07:00,27.5
2017-05-27,08:00,21.33
2017-05-27,09:00,-999
2017-05-27,10:00,-999
2017-05-27,11:00,-999
2017-05-27,12:00,-999
2017-05-27,13:00,-999
2017-05-27,14:00,-999
2017-05-27,15:00,-999
2017-05-27,16:00,-999
2017-05-27,17:00,-999
2017-05-27,18:00,-999
2017-05-27,19:00,-999
2017-05-27,20:00,-999
2017-05-27,21:00,-999
2017-05-27,22:00,-999
2017-05-27,23:00,-999
2017-05-28,00:00,-999
2017-05-28,01:00,20
2017-05-28,02:00,21.83
2017-05-28,03:00,36.17
2017-05-28,04:00,40.17
2017-05-28,05:00,45.67
2017-05-28,06:00,49.67
2017-05-28,07:00,53.83
2017-05-28,08:00,40
2017-05-28,09:00,24.5
2017-05-28,10:00,22.33
2017-05-28,11:00,20.17
2017-05-28,12:00,-999
2017-05-28,13:00,-999
2017-05-28,14:00,-999
2017-05-28,15:00,-999
2017-05-28,16:00,-999
2017-05-28,17:00,-999
2017-05-28,18:00,-999
2017-05-28,19:00,-999
2017-05-28,20:00,-999
2017-05-28,21:00,-999
2017-05-28,22:00,21.67
2017-05-28,23:00,27.67
2017-05-29,00:00,33.67
2017-05-29,01:00,35
2017-05-29,02:00,40.17
2017-05-29,03:00,41.5
2017-05-29,04:00,38.33
2017-05-29,05:00,48.5
2017-05-29,06:00,51.5
2017-05-29,07:00,55.83
2017-05-29,08:00,50.67
2017-05-29,09:00,29.67
2017-05-29,10:00,46
2017-05-29,11:00,34.33
2017-05-29,12:00,25.83
2017-05-29,13:00,20.17
2017-05-29,14:00,-999
2017-05-29,15:00,-999
2017-05-29,16:00,20.5
2017-05-29,17:00,-999
2017-05-29,18:00,-999
2017-05-29,19:00,21.67
2017-05-29,20:00,32.67
2017-05-29,21:00,37.67
2017-05-29,22:00,42.83
2017-05-29,23:00,48.17
2017-05-30,00:00,52
2017-05-30,01:00,53.67
2017-05-30,02:00,55.33
2017-05-30,03:00,56.67
2017-05-30,04:00,57.83
2017-05-30,05:00,58.83
2017-05-30,06:00,61.17
2017-05-30,07:00,64.67
2017-05-30,08:00,61.83
2017-05-30,09:00,42.5
2017-05-30,10:00,34.17
2017-05-30,11:00,33.33
2017-05-30,12:00,24.33
2017-05-30,13:00,20.33
2017-05-30,14:00,-999
2017-05-30,15:00,35
2017-05-30,16:00,52
2017-05-30,17:00,42.67
2017-05-30,18:00,28.67
2017-05-30,19:00,35.17
2017-05-30,20:00,44.67
2017-05-30,21:00,51.33
2017-05-30,22:00,54.83
2017-05-30,23:00,57.33
2017-05-31,00:00,59
2017-05-31,01:00,60.17
2017-05-31,02:00,61.33
2017-05-31,03:00,61.17
2017-05-31,04:00,62.67
2017-05-31,05:00,63.17
2017-05-31,06:00,63.5
2017-05-31,07:00,66.17
2017-05-31,08:00,68.17
2017-05-31,09:00,47.17
2017-05-31,10:00,29.67
2017-05-31,11:00,26.5
2017-05-31,12:00,-999
2017-05-31,13:00,-999
2017-05-31,14:00,-999
2017-05-31,15:00,-999
2017-05-31,16:00,-999
2017-05-31,17:00,48.17
2017-05-31,18:00,55.67
2017-05-31,19:00,59.5
2017-05-31,20:00,63.67
2017-05-31,21:00,66.33
2017-05-31,22:00,66.5
2017-05-31,23:00,67.17
